This is the latest recevied weather packets stored in our database for station/object SV2LPQ-2. If no packets are shown the sender has not sent any weather packets the latest 10 day(s).
| Time | Temp. | Humidity | Pressure | Rain* | Wind** | Luminosity | Snow |
|---|---|---|---|---|---|---|---|
| 1777461635 | 23.89° C | 50% | 1042.5 hPa | 0 mm | - | - | - |
| 1777461135 | 23.89° C | 53% | 1042.5 hPa | 0 mm | - | - | - |
| 1777460635 | 23.33° C | 50% | 1042.5 hPa | 0 mm | - | - | - |
| 1777459134 | 22.78° C | 51% | 1042.5 hPa | 0 mm | - | - | - |
| 1777458634 | 23.33° C | 50% | 1042.5 hPa | 0 mm | - | - | - |
| 1777458134 | 22.78° C | 52% | 1042.5 hPa | 0 mm | - | - | - |
| 1777457634 | 22.22° C | 51% | 1042.5 hPa | 0 mm | - | - | - |
| 1777457134 | 22.22° C | 52% | 1042.5 hPa | 0 mm | - | - | - |
| 1777456633 | 22.22° C | 52% | 1042.5 hPa | 0 mm | - | - | - |
| 1777455633 | 21.67° C | 54% | 1042.5 hPa | 0 mm | - | - | - |
| 1777455133 | 21.11° C | 54% | 1042.5 hPa | 0 mm | - | - | - |
| 1777454632 | 21.67° C | 53% | 1042.5 hPa | 0 mm | - | - | - |
| 1777454132 | 21.67° C | 54% | 1042.5 hPa | 0 mm | - | - | - |
| 1777453632 | 21.11° C | 53% | 1042.5 hPa | 0 mm | - | - | - |
| 1777453132 | 20.56° C | 54% | 1042.5 hPa | 0 mm | - | - | - |
| 1777452631 | 20.56° C | 53% | 1042.5 hPa | 0 mm | - | - | - |
| 1777452131 | 20.56° C | 54% | 1042.5 hPa | 0 mm | - | - | - |
| 1777451631 | 20° C | 54% | 1042.5 hPa | 0 mm | - | - | - |
| 1777451131 | 20.56° C | 54% | 1042.5 hPa | 0 mm | - | - | - |
| 1777450630 | 20° C | 56% | 1042.5 hPa | 0 mm | - | - | - |
| 1777450130 | 19.44° C | 57% | 1042.5 hPa | 0 mm | - | - | - |
| 1777449630 | 19.44° C | 58% | 1042.5 hPa | 0 mm | - | - | - |
| 1777449130 | 18.89° C | 59% | 1042.5 hPa | 0 mm | - | - | - |
| 1777448129 | 18.89° C | 60% | 1042.5 hPa | 0 mm | - | - | - |
| 1777447629 | 18.33° C | 64% | 1042.5 hPa | 0 mm | - | - | - |
* Rain latest hour (hover to see other rain measurements)
** Current wind speed in m/s (hover to see current wind gust speed)